Zurück zum Katalog

CZ-6A DEB

AktivPO
NORAD 55902·DEBRIS·🇨🇳 China

Gestartet Nov 11, 2022 von Taiyuan Satellite Launch Center

Loading…

Nächste Überflüge (nächste 24 Stunden)

TLE

AktuellSource: Space-Track

Epoche: Sep 14, 2026, 22:21 UTC

1 55902U 22151ABA 26257.93150137  .00023484  00000-0  26039-2 0  9996
2 55902  98.5743 326.0272 0036231 328.5148  31.3897 14.86790348202776

Verfolge CZ-6A DEB in Echtzeit mit AllMySat

Download on the App Store